Temperature
20 20 20 20 20 20 20 20 19 19 19 19 19 19 19 19 19 19 19 19 19 19 19 19 19 19 18 18 18 18 18 18 18 18 18 18 18 18 18 18 18 18 18
20 20 20 20 20 20 20 20 19 19 19 19 19 19 19 19 19 19 19 19 19 19 19 19 19 19 18 18 18 18 18 18 18 18 18 18 18 18 18 18 18 18 18
21 20 20 20 20 20 20 20 20 19 19 19 19 19 19 19 19 19 19 19 19 19 19 19 19 19 19 18 18 18 18 18 18 18 18 18 18 17 17 17 18 18 18
21 20 20 20 20 20 20 20 20 20 20 19 19 19 19 19 19 19 19 19 19 19 19 19 19 19 19 18 18 18 18 18 18 18 18 18 18 18 17 17 18 18 17
21 21 20 20 20 20 20 20 20 20 20 19 19 19 19 19 19 19 19 19 19 19 19 19 19 19 19 18 18 18 18 18 17 17 18 18 18 18 18 17 18 18 17
21 21 20 20 20 20 20 20 20 19 19 19 19 19 19 19 19 19 19 19 19 19 19 19 19 19 18 18 18 18 18 18 18 18 18 18 17 17 17 17 17 18 18
21 20 20 20 20 20 20 20 20 19 19 19 19 19 19 19 19 19 19 19 19 19 19 19 19 19 18 18 18 18 18 18 18 18 18 17 17 17 17 17 17 17 18
21 20 20 20 20 20 20 20 20 20 20 19 19 19 19 19 19 19 19 19 19 19 19 19 19 19 19 18 18 18 18 18 18 18 17 17 17 17 18 17 17 17 17
20 20 20 20 20 20 20 20 20 20 20 19 19 19 19 19 19 19 19 19 19 19 19 19 19 19 18 18 18 18 18 18 18 18 18 18 17 17 17 17 17 17 17
20 20 20 20 20 20 20 20 20 20 19 19 19 19 19 19 19 19 19 19 19 19 19 19 19 19 18 18 18 18 18 18 18 18 18 18 17 18 17 17 17 17 17
20 20 20 20 20 20 20 19 19 19 19 19 19 19 19 19 19 19 19 19 19 19 19 19 19 19 18 18 18 18 18 18 18 18 18 18 17 17 17 17 17 17 17
19 19 19 20 20 19 19 19 19 19 19 19 19 19 19 19 19 19 19 19 19 19 19 18 18 18 18 18 18 18 18 18 18 18 18 18 18 17 17 17 17 17 17
20 19 19 19 19 19 19 19 19 19 19 19 19 19 19 19 19 19 19 19 19 18 18 18 18 18 18 18 18 18 18 18 18 18 18 18 18 18 17 17 17 17 17
20 19 19 19 19 19 19 19 19 19 19 19 19 19 19 19 19 19 18 18 18 18 18 18 18 18 18 18 18 18 18 18 18 18 18 18 18 17 17 17 17 17 17
20 20 19 19 19 19 19 19 19 19 19 19 19 19 19 19 19 18 18 18 18 18 18 18 18 18 18 18 18 18 18 18 18 18 18 18 17 17 17 17 17 17 17
20 20 19 19 19 19 19 19 19 19 19 19 19 19 18 18 18 19 18 18 18 18 18 18 18 18 18 18 18 18 18 18 18 18 18 17 17 17 17 17 17 17 17
20 20 19 19 19 19 19 19 19 19 19 19 19 19 19 19 18 18 18 18 18 18 18 18 18 18 18 18 18 18 18 18 18 18 17 17 17 17 17 17 17 17 17
20 20 19 19 19 19 19 19 19 19 19 19 19 18 19 19 18 18 18 18 18 18 18 18 18 18 18 18 18 18 18 18 18 17 17 17 17 17 17 17 17 17 17
20 20 20 19 19 19 19 19 19 19 19 19 19 19 18 18 18 18 18 18 18 18 18 18 18 18 18 18 18 18 18 18 18 17 17 17 17 17 17 17 17 17 17
20 20 20 20 19 19 19 19 19 19 19 19 19 19 18 18 18 18 18 18 18 18 18 18 18 18 18 18 18 18 18 18 17 17 17 17 17 17 17 17 17 17 17
20 20 20 20 20 19 19 19 19 19 19 19 19 19 18 18 18 18 18 18 18 18 18 18 18 18 18 18 18 18 18 17 17 17 17 17 17 17 17 17 17 17 17
21 21 20 20 20 20 19 19 19 19 19 18 19 19 19 18 18 18 18 18 18 18 18 18 18 18 18 18 18 18 17 17 17 17 17 17 17 17 17 17 17 17 17
21 21 21 20 20 20 20 19 19 19 19 19 19 19 19 19 18 18 18 18 18 18 18 18 18 18 18 18 18 18 17 17 17 17 17 17 17 17 17 17 17 17 17
21 21 21 21 20 20 20 19 19 19 19 19 19 19 19 19 19 18 18 18 18 18 18 18 18 18 18 18 18 18 18 18 17 17 17 17 17 17 17 17 17 17 17
22 21 21 21 21 20 20 20 19 19 19 19 19 19 19 19 19 19 18 18 18 18 18 18 18 18 18 18 18 18 18 18 18 17 17 17 17 17 17 17 17 17 17
22 21 21 21 21 20 20 20 20 19 19 19 19 19 19 19 19 19 18 18 18 18 18 18 18 18 18 18 18 18 18 18 18 18 17 17 17 17 17 17 17 17 16
Wind_Speed
4 7 11 12 12 12 12 12 13 13 13 12 12 13 13 13 12 12 13 13 13 13 13 13 13 14 14 14 14 14 14 14 14 13 12 12 11 12 13 14 13 12 15
8 9 12 13 13 13 13 13 13 13 12 12 12 12 12 12 12 12 12 12 12 12 13 12 12 13 13 13 13 13 13 13 13 13 12 10 11 11 13 13 12 12 15
9 9 12 13 13 13 13 13 13 13 13 12 11 11 11 11 11 11 12 12 12 12 12 12 12 12 12 12 12 12 12 12 13 12 11 9 9 11 12 13 13 14 14
10 10 11 13 13 13 12 12 13 13 12 12 11 11 10 11 10 11 11 12 12 11 11 11 11 11 11 11 11 11 11 11 12 11 8 8 8 10 11 12 14 14 14
8 9 12 14 14 13 12 12 12 12 12 11 11 10 10 10 10 10 10 11 11 11 11 11 10 10 10 10 9 10 10 10 10 9 8 7 8 10 11 11 13 13 14
8 9 12 14 13 13 12 11 11 10 10 11 11 10 10 10 10 10 10 10 10 10 10 10 9 9 9 8 8 9 9 9 8 7 8 8 8 10 11 11 11 12 13
8 8 11 12 12 12 11 10 10 10 9 10 10 9 9 9 9 9 9 9 10 10 9 9 9 8 8 8 8 8 8 7 8 7 8 8 9 10 10 11 10 12 14
9 8 10 11 11 10 10 10 9 9 9 9 9 9 8 8 8 9 9 8 9 9 9 8 8 8 7 7 7 7 8 7 8 8 7 8 10 11 11 11 11 12 13
8 7 7 8 8 9 9 9 8 9 9 9 9 9 8 8 8 7 8 8 8 9 9 8 7 7 7 7 7 8 8 7 7 7 7 8 11 12 12 11 11 12 13
7 5 5 4 5 5 7 8 8 8 9 8 8 8 7 7 7 7 7 7 8 8 8 8 7 7 6 6 6 7 7 6 6 6 6 8 12 12 12 11 11 12 12
6 4 4 3 4 4 5 6 7 7 7 7 7 7 6 4 4 5 5 6 7 7 7 7 6 6 6 5 6 6 6 5 6 6 7 9 11 12 13 12 12 12 12
5 4 3 3 3 3 4 4 4 5 5 5 5 5 5 4 4 4 4 6 6 6 6 5 5 5 4 3 4 5 4 5 6 6 8 11 11 12 12 13 13 13 13
5 5 3 2 3 3 2 3 3 3 4 4 4 4 5 4 3 2 3 4 4 4 4 3 3 3 3 3 3 3 4 5 6 7 9 12 12 12 12 13 13 14 13
5 4 3 2 2 2 3 3 3 3 3 3 4 5 4 2 2 1 2 3 3 3 2 2 2 2 2 3 3 3 4 5 6 8 9 12 12 12 12 12 13 14 14
5 3 2 3 3 3 3 2 3 3 3 4 4 4 4 3 2 1 1 2 2 3 2 2 2 2 2 2 2 3 3 5 6 7 8 11 12 12 12 12 12 12 13
5 3 3 3 3 3 3 2 2 3 3 3 3 4 5 4 2 2 1 1 1 2 3 3 2 2 1 2 2 2 4 5 7 7 7 10 12 12 11 11 11 11 13
5 4 3 4 3 3 2 2 3 3 3 3 3 4 4 5 3 2 2 1 1 3 3 2 1 1 1 2 2 2 3 3 5 7 7 8 9 10 11 11 11 11 11
6 5 3 4 3 2 2 2 2 3 3 3 3 4 4 5 5 3 2 1 2 2 2 2 2 2 1 1 1 1 1 2 4 6 7 7 7 7 8 10 11 11 11
7 6 4 3 3 2 2 2 2 2 2 2 3 3 4 4 4 3 2 1 2 2 1 2 2 2 2 1 1 1 1 1 1 4 5 6 7 7 7 8 10 11 11
6 6 5 3 3 3 2 2 2 2 1 1 1 2 4 4 4 3 2 2 2 2 2 2 2 2 2 2 2 1 1 1 1 1 3 4 6 7 7 7 7 7 10
6 6 5 4 3 3 2 2 1 1 1 1 2 3 4 4 4 3 2 2 2 3 3 3 2 2 1 2 2 2 3 2 1 0 1 2 3 5 6 6 6 6 6
7 6 5 4 4 3 2 2 2 2 1 1 1 1 3 4 4 4 4 3 3 3 2 2 3 2 1 1 2 2 2 3 2 1 1 2 2 3 4 5 5 5 5
7 7 6 5 4 4 3 2 2 2 1 1 0 1 2 3 4 4 4 4 3 3 3 3 3 3 2 1 1 3 3 2 1 2 1 1 2 2 3 4 5 6 6
9 8 6 6 5 4 3 3 3 3 2 2 2 2 1 3 3 4 4 4 3 3 3 3 3 3 3 2 1 1 2 3 2 0 2 1 0 2 2 3 3 5 7
10 8 7 6 5 4 4 4 3 3 2 1 1 1 1 1 3 3 4 4 3 2 2 3 2 2 2 3 1 1 1 1 2 2 1 2 1 1 2 3 3 4 6
8 8 7 6 4 4 4 4 4 4 3 2 2 2 1 1 2 3 3 3 3 3 2 2 2 3 2 2 1 1 2 2 2 2 2 2 1 2 1 1 3 3 6
Wind_Direction
152 157 143 134 125 117 115 114 114 110 106 104 105 109 110 111 112 116 118 121 124 124 125 126 127 131 132 132 134 135 135 134 133 134 134 135 135 142 146 144 141 137 137
154 154 143 137 129 121 117 115 115 112 111 109 108 111 112 113 115 118 120 123 126 127 127 128 130 133 134 135 136 136 136 135 133 132 130 132 133 134 141 145 143 140 140
141 147 145 139 131 123 120 118 116 114 114 114 112 113 115 113 115 118 121 125 128 129 130 131 131 134 135 136 137 136 136 136 134 130 128 127 133 135 140 144 141 141 141
140 145 144 140 133 127 123 121 119 116 116 115 115 116 117 115 116 119 121 126 130 131 132 133 134 136 137 137 137 138 139 137 135 132 130 132 133 138 140 142 140 142 145
132 140 143 138 133 130 127 124 121 119 119 119 120 119 119 118 118 123 125 127 131 134 134 135 139 141 142 141 140 142 145 143 139 133 130 133 132 141 144 145 145 147 149
134 139 140 138 135 132 131 127 123 121 121 123 124 122 124 124 122 124 129 131 133 137 139 142 145 146 147 148 150 150 149 144 139 135 138 139 139 143 146 147 146 150 151
136 136 139 140 140 137 134 131 127 127 129 128 127 127 129 130 129 128 130 131 134 138 141 143 148 149 151 155 154 154 154 151 139 138 140 144 147 146 149 148 145 149 153
136 135 139 142 144 144 142 138 133 133 135 135 134 134 136 137 135 134 132 134 139 143 146 147 148 149 150 153 154 159 162 157 148 147 144 152 155 154 155 153 149 148 151
129 131 133 143 148 152 152 147 141 139 136 138 134 136 141 143 142 139 140 145 148 150 153 154 155 155 157 159 160 161 160 157 145 151 154 159 162 163 161 158 157 157 156
115 119 125 130 144 154 158 153 148 138 136 138 140 141 145 147 147 144 146 151 152 153 157 157 160 161 163 166 167 161 160 158 152 157 156 165 166 167 167 164 163 161 161
110 113 122 128 138 153 156 158 158 148 144 149 150 148 148 155 162 163 157 158 161 161 162 162 161 163 170 175 173 166 166 156 154 160 164 166 168 169 169 168 169 168 167
122 125 120 120 135 145 156 150 151 146 148 151 151 153 152 153 162 165 179 174 171 167 166 164 157 164 172 178 182 177 165 154 159 166 174 173 175 175 174 176 176 174 174
132 123 119 119 126 136 138 142 147 147 146 145 151 151 148 157 166 170 181 191 191 186 190 184 166 182 181 181 194 191 172 163 167 175 177 179 181 181 180 181 181 182 182
121 124 127 126 115 129 137 148 151 151 148 155 164 158 155 150 147 157 185 191 187 193 184 184 180 176 184 183 189 184 168 166 170 174 178 181 184 184 184 184 186 189 188
118 118 113 100 102 112 120 139 142 150 148 164 163 164 155 148 160 170 178 175 184 184 178 169 165 155 166 175 181 172 168 168 168 173 178 183 184 184 185 186 187 189 188
134 129 119 107 99 100 106 112 128 143 149 153 158 158 163 166 166 159 143 150 169 180 169 164 162 149 147 144 138 152 152 157 165 165 173 182 186 187 187 188 187 190 192
145 140 142 140 108 97 107 117 126 140 150 149 161 161 170 173 176 168 154 166 188 177 154 137 119 123 139 132 132 141 140 147 158 166 175 178 184 189 189 189 189 193 195
146 148 152 141 128 117 113 106 109 131 146 150 154 164 172 170 164 151 153 180 182 160 142 134 130 120 119 112 100 124 123 129 151 163 169 173 177 183 190 193 195 198 199
154 150 149 137 138 146 130 105 106 124 138 155 154 175 180 170 160 152 145 166 152 130 132 148 125 127 125 118 125 113 114 122 159 162 165 170 174 179 186 197 202 206 204
155 150 150 146 150 151 131 99 91 97 127 154 173 188 178 166 160 164 148 143 132 122 119 130 134 131 142 146 117 90 58 68 100 143 177 163 174 184 189 194 200 207 207
151 149 150 148 156 142 131 138 142 162 180 186 201 191 175 168 169 163 148 139 135 139 157 160 136 129 110 115 90 47 18 26 58 194 135 143 168 179 180 187 190 190 194
164 162 159 160 161 158 162 165 170 167 179 188 210 190 179 170 174 169 157 158 152 144 147 146 135 130 144 128 123 105 38 2 355 19 108 160 177 166 175 189 188 177 173
172 173 171 172 171 166 154 128 111 81 57 65 187 229 207 179 175 170 164 162 161 156 163 169 163 151 162 207 154 140 143 204 288 338 319 173 168 176 193 180 180 178 175
181 176 171 173 173 169 155 147 154 161 177 211 204 209 209 181 173 167 159 160 164 158 166 182 171 165 153 177 229 187 166 158 151 308 329 322 203 172 187 175 159 166 171
179 175 174 173 177 174 167 169 168 180 197 203 179 175 185 182 175 165 163 164 171 174 180 177 158 147 152 166 168 163 117 107 136 154 227 293 325 273 189 175 160 162 170
175 173 173 173 182 182 179 177 177 185 187 169 180 187 197 188 187 186 176 174 177 176 184 181 161 155 161 156 157 155 160 164 179 159 183 210 245 287 248 186 179 177 182
Height
1513 1513 1513 1513 1513 1512 1511 1512 1512 1513 1513 1514 1514 1514 1514 1514 1514 1514 1514 1514 1515 1516 1517 1519 1520 1522 1523 1524 1526 1527 1528 1528 1529 1530 1530 1530 1528 1527 1529 1533 1535 1537 1539
1513 1514 1514 1514 1514 1513 1513 1513 1513 1514 1514 1515 1515 1515 1515 1515 1515 1515 1515 1515 1516 1517 1519 1520 1521 1523 1524 1525 1527 1528 1528 1529 1530 1530 1531 1531 1530 1530 1531 1534 1536 1537 1539
1514 1514 1514 1515 1515 1515 1514 1514 1515 1515 1516 1516 1516 1516 1516 1516 1516 1516 1516 1516 1517 1519 1520 1521 1523 1524 1525 1526 1527 1529 1529 1530 1531 1531 1532 1532 1532 1533 1534 1535 1537 1538 1540
1515 1515 1515 1516 1516 1516 1516 1516 1516 1517 1517 1517 1517 1517 1517 1517 1517 1517 1517 1517 1519 1520 1521 1522 1524 1525 1526 1527 1528 1529 1530 1531 1531 1532 1533 1533 1533 1534 1535 1536 1537 1538 1540
1517 1516 1516 1517 1517 1517 1517 1517 1518 1518 1518 1518 1518 1519 1519 1518 1518 1518 1518 1519 1520 1521 1522 1523 1525 1526 1527 1528 1529 1530 1531 1532 1532 1533 1533 1534 1534 1535 1535 1536 1537 1539 1540
1518 1518 1518 1518 1518 1519 1519 1519 1519 1519 1519 1520 1520 1520 1520 1520 1520 1520 1520 1520 1521 1522 1523 1524 1525 1526 1527 1528 1529 1531 1532 1533 1533 1533 1534 1534 1535 1535 1536 1537 1537 1537 1539
1518 1519 1520 1520 1520 1520 1520 1521 1521 1521 1521 1521 1521 1521 1521 1521 1521 1521 1521 1521 1522 1523 1524 1525 1526 1527 1528 1529 1530 1531 1532 1533 1534 1534 1535 1535 1535 1536 1537 1537 1536 1535 1537
1520 1520 1521 1521 1522 1522 1522 1522 1522 1522 1522 1523 1523 1523 1523 1523 1523 1523 1523 1523 1523 1524 1525 1526 1526 1527 1528 1529 1531 1532 1533 1534 1534 1535 1535 1536 1536 1537 1537 1538 1538 1538 1540
1521 1521 1522 1522 1523 1523 1523 1524 1524 1524 1524 1524 1524 1524 1524 1524 1524 1524 1524 1524 1524 1525 1525 1526 1527 1528 1529 1530 1531 1532 1534 1534 1535 1535 1536 1536 1537 1537 1538 1539 1540 1541 1542
1522 1523 1523 1523 1523 1524 1525 1525 1525 1525 1525 1525 1525 1525 1525 1525 1525 1525 1525 1525 1526 1526 1527 1528 1528 1529 1530 1531 1532 1533 1534 1535 1535 1536 1536 1537 1537 1538 1538 1539 1540 1542 1543
1524 1524 1524 1524 1525 1525 1526 1526 1526 1526 1526 1526 1526 1526 1526 1526 1526 1526 1526 1527 1527 1528 1528 1529 1530 1530 1531 1532 1533 1534 1534 1535 1536 1536 1536 1537 1537 1538 1539 1539 1540 1542 1543
1525 1525 1525 1525 1525 1526 1526 1526 1527 1527 1527 1527 1527 1527 1527 1527 1527 1527 1528 1528 1528 1529 1529 1530 1531 1531 1532 1533 1534 1535 1535 1535 1536 1536 1537 1537 1537 1538 1538 1539 1540 1542 1543
1525 1525 1526 1526 1526 1526 1527 1527 1527 1527 1527 1527 1528 1528 1528 1528 1528 1528 1528 1529 1529 1529 1530 1531 1532 1532 1533 1534 1534 1535 1535 1536 1536 1536 1537 1537 1537 1537 1538 1539 1540 1541 1543
1526 1526 1527 1527 1527 1527 1527 1527 1528 1528 1528 1528 1528 1528 1528 1529 1529 1529 1529 1530 1530 1530 1531 1532 1532 1533 1533 1534 1535 1535 1535 1536 1536 1536 1536 1537 1537 1537 1537 1538 1539 1540 1542
1527 1527 1527 1527 1527 1527 1527 1528 1528 1528 1529 1529 1529 1529 1529 1530 1530 1530 1530 1530 1530 1531 1531 1532 1532 1533 1533 1534 1535 1535 1536 1536 1536 1536 1536 1536 1536 1536 1537 1538 1539 1540 1541
1527 1527 1528 1528 1528 1528 1528 1528 1529 1529 1529 1529 1529 1530 1530 1530 1530 1530 1530 1530 1531 1531 1532 1532 1533 1533 1534 1534 1535 1535 1536 1536 1536 1536 1536 1536 1536 1536 1537 1538 1538 1539 1541
1527 1528 1528 1528 1528 1528 1528 1528 1529 1529 1530 1529 1530 1530 1530 1530 1530 1531 1531 1531 1531 1532 1532 1532 1533 1533 1534 1534 1535 1535 1535 1536 1536 1536 1536 1536 1536 1536 1537 1537 1538 1539 1540
1528 1528 1528 1528 1528 1528 1529 1529 1529 1529 1529 1530 1530 1530 1530 1530 1530 1531 1531 1531 1532 1532 1532 1532 1533 1533 1533 1534 1534 1535 1535 1535 1535 1535 1535 1535 1536 1536 1537 1537 1538 1539 1540
1528 1528 1528 1528 1528 1529 1529 1529 1529 1529 1530 1530 1530 1530 1530 1530 1530 1531 1531 1531 1532 1532 1532 1532 1533 1533 1533 1534 1534 1535 1535 1535 1535 1535 1535 1535 1535 1536 1537 1537 1538 1539 1539
1527 1527 1528 1528 1528 1529 1529 1529 1529 1530 1530 1530 1530 1530 1530 1530 1530 1530 1531 1531 1532 1532 1532 1532 1533 1533 1533 1534 1534 1534 1535 1535 1535 1535 1535 1535 1536 1536 1537 1537 1537 1538 1538
1527 1527 1527 1528 1528 1528 1528 1529 1529 1529 1529 1530 1530 1529 1530 1530 1530 1530 1530 1531 1531 1532 1532 1532 1533 1533 1534 1534 1534 1534 1535 1535 1535 1535 1535 1536 1536 1537 1537 1537 1537 1537 1538
1527 1527 1527 1528 1528 1528 1528 1529 1529 1529 1529 1529 1529 1529 1529 1529 1530 1530 1530 1530 1531 1531 1532 1532 1533 1533 1533 1534 1534 1534 1535 1536 1536 1536 1536 1536 1536 1536 1537 1537 1536 1537 1537
1526 1527 1527 1527 1527 1528 1528 1529 1529 1529 1529 1529 1529 1529 1529 1529 1529 1529 1529 1530 1530 1531 1531 1531 1532 1532 1532 1533 1534 1534 1534 1534 1535 1536 1536 1536 1536 1536 1536 1536 1536 1536 1536
1525 1526 1526 1527 1527 1527 1528 1528 1528 1528 1528 1528 1528 1528 1528 1528 1528 1528 1529 1529 1530 1530 1530 1531 1531 1532 1532 1532 1533 1533 1534 1533 1534 1534 1535 1535 1535 1535 1535 1535 1535 1535 1536
1524 1525 1526 1526 1527 1527 1527 1527 1527 1527 1527 1527 1527 1527 1527 1527 1527 1528 1528 1528 1529 1529 1529 1530 1530 1531 1531 1531 1531 1532 1532 1533 1533 1533 1533 1534 1534 1534 1534 1534 1534 1535 1535
1524 1525 1525 1526 1526 1526 1527 1527 1527 1527 1527 1527 1526 1526 1526 1527 1527 1527 1527 1527 1527 1527 1528 1528 1529 1530 1530 1530 1530 1531 1531 1531 1531 1532 1532 1532 1533 1533 1534 1533 1534 1533 1534